Year,Month,Day,Hour,Minute,Value (Times are PST for temperature in C)
2015,04,18,00,00,6.60
2015,04,18,00,01,6.50
2015,04,18,00,02,6.50
2015,04,18,00,03,6.50
2015,04,18,00,04,6.40
2015,04,18,00,05,6.40
2015,04,18,00,06,6.40
2015,04,18,00,07,6.40
2015,04,18,00,08,6.40
2015,04,18,00,09,6.50
2015,04,18,00,10,6.50
2015,04,18,00,11,6.50
2015,04,18,00,12,6.50
2015,04,18,00,13,6.50
2015,04,18,00,14,6.50
2015,04,18,00,15,6.50
2015,04,18,00,16,6.50
2015,04,18,00,17,6.50
2015,04,18,00,18,6.50
2015,04,18,00,19,6.40
2015,04,18,00,20,6.40
2015,04,18,00,21,6.40
2015,04,18,00,22,6.30
2015,04,18,00,23,6.30
2015,04,18,00,24,6.30
2015,04,18,00,25,6.30
2015,04,18,00,26,6.30
2015,04,18,00,27,6.20
2015,04,18,00,28,6.20
2015,04,18,00,29,6.30
2015,04,18,00,30,6.30
2015,04,18,00,31,6.30
2015,04,18,00,32,6.30
2015,04,18,00,33,6.30
2015,04,18,00,34,6.30
2015,04,18,00,35,6.20
2015,04,18,00,36,6.20
2015,04,18,00,37,6.20
2015,04,18,00,38,6.20
2015,04,18,00,39,6.20
2015,04,18,00,40,6.20
2015,04,18,00,41,6.30
2015,04,18,00,42,6.20
2015,04,18,00,43,6.20
2015,04,18,00,44,6.20
2015,04,18,00,45,6.20
2015,04,18,00,46,6.20
2015,04,18,00,47,6.20
2015,04,18,00,48,6.20
2015,04,18,00,49,6.20
2015,04,18,00,50,6.10
2015,04,18,00,51,6.10
2015,04,18,00,52,6.10
2015,04,18,00,53,6.20
2015,04,18,00,54,6.20
2015,04,18,00,55,6.20
2015,04,18,00,56,6.10
2015,04,18,00,57,6.10
2015,04,18,00,58,6.10
2015,04,18,00,59,6.10
2015,04,18,01,00,6.10
2015,04,18,01,01,6.10
2015,04,18,01,02,6.10
2015,04,18,01,03,6.10
2015,04,18,01,04,6.10
2015,04,18,01,05,6.10
2015,04,18,01,06,6.10
2015,04,18,01,07,6.10
2015,04,18,01,08,6.10
2015,04,18,01,09,6.10
2015,04,18,01,10,6.10
2015,04,18,01,11,6.10
2015,04,18,01,12,6.00
2015,04,18,01,13,6.00
2015,04,18,01,14,6.00
2015,04,18,01,15,6.00
2015,04,18,01,16,6.00
2015,04,18,01,17,6.00
2015,04,18,01,18,6.00
2015,04,18,01,19,5.90
2015,04,18,01,20,5.90
2015,04,18,01,21,5.90
2015,04,18,01,22,5.90
2015,04,18,01,23,6.00
2015,04,18,01,24,6.00
2015,04,18,01,25,5.90
2015,04,18,01,26,5.90
2015,04,18,01,27,5.90
2015,04,18,01,28,5.90
2015,04,18,01,29,5.90
2015,04,18,01,30,5.90
2015,04,18,01,31,5.90
2015,04,18,01,32,5.90
2015,04,18,01,33,5.90
2015,04,18,01,34,5.80
2015,04,18,01,35,5.80
2015,04,18,01,36,5.80
2015,04,18,01,37,5.80
2015,04,18,01,38,5.80
2015,04,18,01,39,5.80
2015,04,18,01,40,5.80
2015,04,18,01,41,5.80
2015,04,18,01,42,5.80
2015,04,18,01,43,5.80
2015,04,18,01,44,5.80
2015,04,18,01,45,5.80
2015,04,18,01,46,5.80
2015,04,18,01,47,5.80
2015,04,18,01,48,5.80
2015,04,18,01,49,5.80
2015,04,18,01,50,5.80
2015,04,18,01,51,5.80
2015,04,18,01,52,5.80
2015,04,18,01,53,5.70
2015,04,18,01,54,5.70
2015,04,18,01,55,5.70
2015,04,18,01,56,5.60
2015,04,18,01,57,5.60
2015,04,18,01,58,5.60
2015,04,18,01,59,5.60
2015,04,18,02,00,5.70
2015,04,18,02,01,5.70
2015,04,18,02,02,5.70
2015,04,18,02,03,5.70
2015,04,18,02,04,5.70
2015,04,18,02,05,5.60
2015,04,18,02,06,5.60
2015,04,18,02,07,5.60
2015,04,18,02,08,5.60
2015,04,18,02,09,5.60
2015,04,18,02,10,5.60
2015,04,18,02,11,5.60
2015,04,18,02,12,5.50
2015,04,18,02,13,5.50
2015,04,18,02,14,5.50
2015,04,18,02,15,5.50
2015,04,18,02,16,5.50
2015,04,18,02,17,5.40
2015,04,18,02,18,5.40
2015,04,18,02,19,5.40
2015,04,18,02,20,5.40
2015,04,18,02,21,5.40
2015,04,18,02,22,5.40
2015,04,18,02,23,5.40
2015,04,18,02,24,5.40
2015,04,18,02,25,5.40
2015,04,18,02,26,5.30
2015,04,18,02,27,5.30
2015,04,18,02,28,5.30
2015,04,18,02,29,5.30
2015,04,18,02,30,5.20
2015,04,18,02,31,5.20
2015,04,18,02,32,5.20
2015,04,18,02,33,5.20
2015,04,18,02,34,5.10
2015,04,18,02,35,5.20
2015,04,18,02,36,5.10
2015,04,18,02,37,5.10
2015,04,18,02,38,5.10
2015,04,18,02,39,5.10
2015,04,18,02,40,5.10
2015,04,18,02,41,5.10
2015,04,18,02,42,5.10
2015,04,18,02,43,5.10
2015,04,18,02,44,5.20
2015,04,18,02,45,5.20
2015,04,18,02,46,5.20
2015,04,18,02,47,5.20
2015,04,18,02,48,5.20
2015,04,18,02,49,5.20
2015,04,18,02,50,5.20
2015,04,18,02,51,5.10
2015,04,18,02,52,5.10
2015,04,18,02,53,5.10
2015,04,18,02,54,5.10
2015,04,18,02,55,5.10
2015,04,18,02,56,5.10
2015,04,18,02,57,5.00
2015,04,18,02,58,5.00
2015,04,18,02,59,5.00
2015,04,18,03,00,4.90
2015,04,18,03,01,4.90
2015,04,18,03,02,4.90
2015,04,18,03,03,4.90
2015,04,18,03,04,4.90
2015,04,18,03,05,4.90
2015,04,18,03,06,4.90
2015,04,18,03,07,4.90
2015,04,18,03,08,4.90
2015,04,18,03,09,4.90
2015,04,18,03,10,5.00
2015,04,18,03,11,5.00
2015,04,18,03,12,5.10
2015,04,18,03,13,5.30
2015,04,18,03,14,5.30
2015,04,18,03,15,5.40
2015,04,18,03,16,5.50
2015,04,18,03,17,5.50
2015,04,18,03,18,5.60
2015,04,18,03,19,5.60
2015,04,18,03,20,5.70
2015,04,18,03,21,5.80
2015,04,18,03,22,5.80
2015,04,18,03,23,5.90
2015,04,18,03,24,5.90
2015,04,18,03,25,5.90
2015,04,18,03,26,5.90
2015,04,18,03,27,5.90
2015,04,18,03,28,5.90
2015,04,18,03,29,5.90
2015,04,18,03,30,5.90
2015,04,18,03,31,5.90
2015,04,18,03,32,5.90
2015,04,18,03,33,5.90
2015,04,18,03,34,5.80
2015,04,18,03,35,5.80
2015,04,18,03,36,5.70
2015,04,18,03,37,5.70
2015,04,18,03,38,5.60
2015,04,18,03,39,5.60
2015,04,18,03,40,5.60
2015,04,18,03,41,5.50
2015,04,18,03,42,5.50
2015,04,18,03,43,5.50
2015,04,18,03,44,5.40
2015,04,18,03,45,5.40
2015,04,18,03,46,5.30
2015,04,18,03,47,5.30
2015,04,18,03,48,5.20
2015,04,18,03,49,5.20
2015,04,18,03,50,5.20
2015,04,18,03,51,5.20
2015,04,18,03,52,5.10
2015,04,18,03,53,5.00
2015,04,18,03,54,5.00
2015,04,18,03,55,4.90
2015,04,18,03,56,4.90
2015,04,18,03,57,4.90
2015,04,18,03,58,4.90
2015,04,18,03,59,4.80
2015,04,18,04,00,4.80
2015,04,18,04,01,4.80
2015,04,18,04,02,4.80
2015,04,18,04,03,4.80
2015,04,18,04,04,4.80
2015,04,18,04,05,4.80
2015,04,18,04,06,4.80
2015,04,18,04,07,4.80
2015,04,18,04,08,4.80
2015,04,18,04,09,4.80
2015,04,18,04,10,4.80
2015,04,18,04,11,4.80
2015,04,18,04,12,4.80
2015,04,18,04,13,4.80
2015,04,18,04,14,4.90
2015,04,18,04,15,4.90
2015,04,18,04,16,4.90
2015,04,18,04,17,4.80
2015,04,18,04,18,4.70
2015,04,18,04,19,4.60
2015,04,18,04,20,4.60
2015,04,18,04,21,4.50
2015,04,18,04,22,4.50
2015,04,18,04,23,4.50
2015,04,18,04,24,4.40
2015,04,18,04,25,4.40
2015,04,18,04,26,4.40
2015,04,18,04,27,4.40
2015,04,18,04,28,4.40
2015,04,18,04,29,4.40
2015,04,18,04,30,4.30
2015,04,18,04,31,4.30
2015,04,18,04,32,4.20
2015,04,18,04,33,4.20
2015,04,18,04,34,4.20
2015,04,18,04,35,4.20
2015,04,18,04,36,4.20
2015,04,18,04,37,4.20
2015,04,18,04,38,4.10
2015,04,18,04,39,4.10
2015,04,18,04,40,4.10
2015,04,18,04,41,4.10
2015,04,18,04,42,4.10
2015,04,18,04,43,4.10
2015,04,18,04,44,4.10
2015,04,18,04,45,4.10
2015,04,18,04,46,4.10
2015,04,18,04,47,4.20
2015,04,18,04,48,4.20
2015,04,18,04,49,4.20
2015,04,18,04,50,4.20
2015,04,18,04,51,4.10
2015,04,18,04,52,4.10
2015,04,18,04,53,4.10
2015,04,18,04,54,4.00
2015,04,18,04,55,4.00
2015,04,18,04,56,4.00
2015,04,18,04,57,4.00
2015,04,18,04,58,3.90
2015,04,18,04,59,3.90
2015,04,18,05,00,3.90
2015,04,18,05,01,3.90
2015,04,18,05,02,3.90
2015,04,18,05,03,3.90
2015,04,18,05,04,3.90
2015,04,18,05,05,3.90
2015,04,18,05,06,3.90
2015,04,18,05,07,3.90
2015,04,18,05,08,3.90
2015,04,18,05,09,3.90
2015,04,18,05,10,3.90
2015,04,18,05,11,3.90
2015,04,18,05,12,3.90
2015,04,18,05,13,3.90
2015,04,18,05,14,3.90
2015,04,18,05,15,3.90
2015,04,18,05,16,4.00
2015,04,18,05,17,4.00
2015,04,18,05,18,4.10
2015,04,18,05,19,4.10
2015,04,18,05,20,4.00
2015,04,18,05,21,4.00
2015,04,18,05,22,3.90
2015,04,18,05,23,3.90
2015,04,18,05,24,3.90
2015,04,18,05,25,3.90
2015,04,18,05,26,3.90
2015,04,18,05,27,4.00
2015,04,18,05,28,4.00
2015,04,18,05,29,4.00
2015,04,18,05,30,4.00
2015,04,18,05,31,3.90
2015,04,18,05,32,3.90
2015,04,18,05,33,3.90
2015,04,18,05,34,3.80
2015,04,18,05,35,3.80
2015,04,18,05,36,3.80
2015,04,18,05,37,3.80
2015,04,18,05,38,3.80
2015,04,18,05,39,3.80
2015,04,18,05,40,3.80
2015,04,18,05,41,3.80
2015,04,18,05,42,3.80
2015,04,18,05,43,3.80
2015,04,18,05,44,3.70
2015,04,18,05,45,3.70
2015,04,18,05,46,3.70
2015,04,18,05,47,3.70
2015,04,18,05,48,3.70
2015,04,18,05,49,3.70
2015,04,18,05,50,3.70
2015,04,18,05,51,3.70
2015,04,18,05,52,3.70
2015,04,18,05,53,3.70
2015,04,18,05,54,3.80
2015,04,18,05,55,3.70
2015,04,18,05,56,3.70
2015,04,18,05,57,3.70
2015,04,18,05,58,3.70
2015,04,18,05,59,3.70
2015,04,18,06,00,3.60
2015,04,18,06,01,3.60
2015,04,18,06,02,3.60
2015,04,18,06,03,3.60
2015,04,18,06,04,3.60
2015,04,18,06,05,3.50
2015,04,18,06,06,3.50
2015,04,18,06,07,3.40
2015,04,18,06,08,3.40
2015,04,18,06,09,3.40
2015,04,18,06,10,3.40
2015,04,18,06,11,3.30
2015,04,18,06,12,3.30
2015,04,18,06,13,3.40
2015,04,18,06,14,3.40
2015,04,18,06,15,3.40
2015,04,18,06,16,3.40
2015,04,18,06,17,3.40
2015,04,18,06,18,3.40
2015,04,18,06,19,3.40
2015,04,18,06,20,3.40
2015,04,18,06,21,3.40
2015,04,18,06,22,3.40
2015,04,18,06,23,3.40
2015,04,18,06,24,3.40
2015,04,18,06,25,3.40
2015,04,18,06,26,3.40
2015,04,18,06,27,3.40
2015,04,18,06,28,3.40
2015,04,18,06,29,3.40
2015,04,18,06,30,3.30
2015,04,18,06,31,3.30
2015,04,18,06,32,3.30
2015,04,18,06,33,3.20
2015,04,18,06,34,3.20
2015,04,18,06,35,3.20
2015,04,18,06,36,3.20
2015,04,18,06,37,3.20
2015,04,18,06,38,3.30
2015,04,18,06,39,3.30
2015,04,18,06,40,3.30
2015,04,18,06,41,3.40
2015,04,18,06,42,3.40
2015,04,18,06,43,3.50
2015,04,18,06,44,3.50
2015,04,18,06,45,3.50
2015,04,18,06,46,3.50
2015,04,18,06,47,3.40
2015,04,18,06,48,3.40
2015,04,18,06,49,3.40
2015,04,18,06,50,3.40
2015,04,18,06,51,3.40
2015,04,18,06,52,3.40
2015,04,18,06,53,3.40
2015,04,18,06,54,3.40
2015,04,18,06,55,3.40
2015,04,18,06,56,3.40
2015,04,18,06,57,3.50
2015,04,18,06,58,3.50
2015,04,18,06,59,3.50
2015,04,18,07,00,3.60
2015,04,18,07,01,3.60
2015,04,18,07,02,3.60
2015,04,18,07,03,3.70
2015,04,18,07,04,3.70
2015,04,18,07,05,3.70
2015,04,18,07,06,3.80
2015,04,18,07,07,3.80
2015,04,18,07,08,3.80
2015,04,18,07,09,3.90
2015,04,18,07,10,3.90
2015,04,18,07,11,3.90
2015,04,18,07,12,3.90
2015,04,18,07,13,3.90
2015,04,18,07,14,4.00
2015,04,18,07,15,3.90
2015,04,18,07,16,4.00
2015,04,18,07,17,4.00
2015,04,18,07,18,4.00
2015,04,18,07,19,4.00
2015,04,18,07,20,4.10
2015,04,18,07,21,4.10
2015,04,18,07,22,4.10
2015,04,18,07,23,4.20
2015,04,18,07,24,4.20
2015,04,18,07,25,4.20
2015,04,18,07,26,4.30
2015,04,18,07,27,4.30
2015,04,18,07,28,4.40
2015,04,18,07,29,4.40
2015,04,18,07,30,4.40
2015,04,18,07,31,4.40
2015,04,18,07,32,4.50
2015,04,18,07,33,4.50
2015,04,18,07,34,4.60
2015,04,18,07,35,4.60
2015,04,18,07,36,4.70
2015,04,18,07,37,4.70
2015,04,18,07,38,4.70
2015,04,18,07,39,4.80
2015,04,18,07,40,4.80
2015,04,18,07,41,4.90
2015,04,18,07,42,4.90
2015,04,18,07,43,5.00
2015,04,18,07,44,5.00
2015,04,18,07,45,5.00
2015,04,18,07,46,5.10
2015,04,18,07,47,5.20
2015,04,18,07,48,5.20
2015,04,18,07,49,5.30
2015,04,18,07,50,5.30
2015,04,18,07,51,5.40
2015,04,18,07,52,5.50
2015,04,18,07,53,5.60
2015,04,18,07,54,5.60
2015,04,18,07,55,5.70
2015,04,18,07,56,5.70
2015,04,18,07,57,5.70
2015,04,18,07,58,5.70
2015,04,18,07,59,5.70
2015,04,18,08,00,5.70
2015,04,18,08,01,5.80
2015,04,18,08,02,5.80
2015,04,18,08,03,5.80
2015,04,18,08,04,5.90
2015,04,18,08,05,5.90
2015,04,18,08,06,6.00
2015,04,18,08,07,6.10
2015,04,18,08,08,6.20
2015,04,18,08,09,6.30
2015,04,18,08,10,6.40
2015,04,18,08,11,6.50
2015,04,18,08,12,6.60
2015,04,18,08,13,6.70
2015,04,18,08,14,6.80
2015,04,18,08,15,6.90
2015,04,18,08,16,7.00
2015,04,18,08,17,7.00
2015,04,18,08,18,7.10
2015,04,18,08,19,7.20
2015,04,18,08,20,7.20
2015,04,18,08,21,7.30
2015,04,18,08,22,7.40
2015,04,18,08,23,7.50
2015,04,18,08,24,7.60
2015,04,18,08,25,7.80
2015,04,18,08,26,7.90
2015,04,18,08,27,8.00
2015,04,18,08,28,8.10
2015,04,18,08,29,8.20
2015,04,18,08,30,8.30
2015,04,18,08,31,8.30
2015,04,18,08,32,8.40
2015,04,18,08,33,8.50
2015,04,18,08,34,8.60
2015,04,18,08,35,8.60
2015,04,18,08,36,8.70
2015,04,18,08,37,8.80
2015,04,18,08,38,8.80
2015,04,18,08,39,8.90
2015,04,18,08,40,8.90
2015,04,18,08,41,9.00
2015,04,18,08,42,9.10
2015,04,18,08,43,9.10
2015,04,18,08,44,9.20
2015,04,18,08,45,9.20
2015,04,18,08,46,9.30
2015,04,18,08,47,9.40
2015,04,18,08,48,9.50
2015,04,18,08,49,9.50
2015,04,18,08,50,9.60
2015,04,18,08,51,9.70
2015,04,18,08,52,9.80
2015,04,18,08,53,9.80
2015,04,18,08,54,9.90
2015,04,18,08,55,10.00
2015,04,18,08,56,10.00
2015,04,18,08,57,10.10
2015,04,18,08,58,10.20
2015,04,18,08,59,10.20
2015,04,18,09,00,10.20
2015,04,18,09,01,10.30
2015,04,18,09,02,10.30
2015,04,18,09,03,10.30
2015,04,18,09,04,10.40
2015,04,18,09,05,10.40
2015,04,18,09,06,10.40
2015,04,18,09,07,10.40
2015,04,18,09,08,10.40
2015,04,18,09,09,10.50
2015,04,18,09,10,10.50
2015,04,18,09,11,10.60
2015,04,18,09,12,10.60
2015,04,18,09,13,10.70
2015,04,18,09,14,10.80
2015,04,18,09,15,10.80
2015,04,18,09,16,10.90
2015,04,18,09,17,10.90
2015,04,18,09,18,11.00
2015,04,18,09,19,11.00
2015,04,18,09,20,11.10
2015,04,18,09,21,11.10
2015,04,18,09,22,11.20
2015,04,18,09,23,11.20
2015,04,18,09,24,11.30
2015,04,18,09,25,11.30
2015,04,18,09,26,11.30
2015,04,18,09,27,11.30
2015,04,18,09,28,11.30
2015,04,18,09,29,11.30
2015,04,18,09,30,11.30
2015,04,18,09,31,11.30
2015,04,18,09,32,11.30
2015,04,18,09,33,11.30
2015,04,18,09,34,11.30
2015,04,18,09,35,11.30
2015,04,18,09,36,11.30
2015,04,18,09,37,11.40
2015,04,18,09,38,11.40
2015,04,18,09,39,11.50
2015,04,18,09,40,11.50
2015,04,18,09,41,11.50
2015,04,18,09,42,11.40
2015,04,18,09,43,11.40
2015,04,18,09,44,11.40
2015,04,18,09,45,11.40
2015,04,18,09,46,11.40
2015,04,18,09,47,11.40
2015,04,18,09,48,11.40
2015,04,18,09,49,11.50
2015,04,18,09,50,11.50
2015,04,18,09,51,11.50
2015,04,18,09,52,11.50
2015,04,18,09,53,11.50
2015,04,18,09,54,11.50
2015,04,18,09,55,11.50
2015,04,18,09,56,11.50
2015,04,18,09,57,11.50
2015,04,18,09,58,11.60
2015,04,18,09,59,11.60
2015,04,18,10,00,11.70
2015,04,18,10,01,11.70
2015,04,18,10,02,11.70
2015,04,18,10,03,11.70
2015,04,18,10,04,11.70
2015,04,18,10,05,11.70
2015,04,18,10,06,11.60
2015,04,18,10,07,11.60
2015,04,18,10,08,11.60
2015,04,18,10,09,11.50
2015,04,18,10,10,11.60
2015,04,18,10,11,11.60
2015,04,18,10,12,11.70
2015,04,18,10,13,11.70
2015,04,18,10,14,11.80
2015,04,18,10,15,11.90
2015,04,18,10,16,11.90
2015,04,18,10,17,12.00
2015,04,18,10,18,12.10
2015,04,18,10,19,12.10
2015,04,18,10,20,12.10
2015,04,18,10,21,12.10
2015,04,18,10,22,12.10
2015,04,18,10,23,12.10
2015,04,18,10,24,12.10
2015,04,18,10,25,12.00
2015,04,18,10,26,12.00
2015,04,18,10,27,12.00
2015,04,18,10,28,12.00
2015,04,18,10,29,12.00
2015,04,18,10,30,12.00
2015,04,18,10,31,12.00
2015,04,18,10,32,11.90
2015,04,18,10,33,11.90
2015,04,18,10,34,11.90
2015,04,18,10,35,11.90
2015,04,18,10,36,11.90
2015,04,18,10,37,11.90
2015,04,18,10,38,11.90
2015,04,18,10,39,11.90
2015,04,18,10,40,12.00
2015,04,18,10,41,12.00
2015,04,18,10,42,12.10
2015,04,18,10,43,12.10
2015,04,18,10,44,12.10
2015,04,18,10,45,12.10
2015,04,18,10,46,12.10
2015,04,18,10,47,12.10
2015,04,18,10,48,12.10
2015,04,18,10,49,12.10
2015,04,18,10,50,12.10
2015,04,18,10,51,12.20
2015,04,18,10,52,12.20
2015,04,18,10,53,12.30
2015,04,18,10,54,12.30
2015,04,18,10,55,12.40
2015,04,18,10,56,12.40
2015,04,18,10,57,12.40
2015,04,18,10,58,12.40
2015,04,18,10,59,12.40
2015,04,18,11,00,12.40
2015,04,18,11,01,12.40
2015,04,18,11,02,12.40
2015,04,18,11,03,12.40
2015,04,18,11,04,12.40
2015,04,18,11,05,12.30
2015,04,18,11,06,12.30
2015,04,18,11,07,12.20
2015,04,18,11,08,12.20
2015,04,18,11,09,12.20
2015,04,18,11,10,12.20
2015,04,18,11,11,12.30
2015,04,18,11,12,12.30
2015,04,18,11,13,12.30
2015,04,18,11,14,12.30
2015,04,18,11,15,12.40
2015,04,18,11,16,12.40
2015,04,18,11,17,12.50
2015,04,18,11,18,12.50
2015,04,18,11,19,12.50
2015,04,18,11,20,12.60
2015,04,18,11,21,12.60
2015,04,18,11,22,12.60
2015,04,18,11,23,12.60
2015,04,18,11,24,12.60
2015,04,18,11,25,12.60
2015,04,18,11,26,12.50
2015,04,18,11,27,12.50
2015,04,18,11,28,12.50
2015,04,18,11,29,12.40
2015,04,18,11,30,12.40
2015,04,18,11,31,12.40
2015,04,18,11,32,12.40
2015,04,18,11,33,12.40
2015,04,18,11,34,12.40
2015,04,18,11,35,12.40
2015,04,18,11,36,12.40
2015,04,18,11,37,12.50
2015,04,18,11,38,12.50
2015,04,18,11,39,12.60
2015,04,18,11,40,12.60
2015,04,18,11,41,12.60
2015,04,18,11,42,12.60
2015,04,18,11,43,12.60
2015,04,18,11,44,12.60
2015,04,18,11,45,12.70
2015,04,18,11,46,12.70
2015,04,18,11,47,12.70
2015,04,18,11,48,12.70
2015,04,18,11,49,12.70
2015,04,18,11,50,12.60
2015,04,18,11,51,12.50
2015,04,18,11,52,12.50
2015,04,18,11,53,12.40
2015,04,18,11,54,12.40
2015,04,18,11,55,12.30
2015,04,18,11,56,12.40
2015,04,18,11,57,12.40
2015,04,18,11,58,12.50
2015,04,18,11,59,12.60
2015,04,18,12,00,12.70
2015,04,18,12,01,12.70
2015,04,18,12,02,12.70
2015,04,18,12,03,12.70
2015,04,18,12,04,12.70
2015,04,18,12,05,12.80
2015,04,18,12,06,12.80
2015,04,18,12,07,12.80
2015,04,18,12,08,12.80
2015,04,18,12,09,12.70
2015,04,18,12,10,12.60
2015,04,18,12,11,12.70
2015,04,18,12,12,12.70
2015,04,18,12,13,12.70
2015,04,18,12,14,12.80
2015,04,18,12,15,12.90
2015,04,18,12,16,12.90
2015,04,18,12,17,13.00
2015,04,18,12,18,13.10
2015,04,18,12,19,13.10
2015,04,18,12,20,13.20
2015,04,18,12,21,13.20
2015,04,18,12,22,13.20
2015,04,18,12,23,13.10
2015,04,18,12,24,13.00
2015,04,18,12,25,12.90
2015,04,18,12,26,12.80
2015,04,18,12,27,12.80
2015,04,18,12,28,12.80
2015,04,18,12,29,12.90
2015,04,18,12,30,12.90
2015,04,18,12,31,13.00
2015,04,18,12,32,13.00
2015,04,18,12,33,13.00
2015,04,18,12,34,13.00
2015,04,18,12,35,13.00
2015,04,18,12,36,13.10
2015,04,18,12,37,13.10
2015,04,18,12,38,13.10
2015,04,18,12,39,13.20
2015,04,18,12,40,13.30
2015,04,18,12,41,13.40
2015,04,18,12,42,13.50
2015,04,18,12,43,13.60
2015,04,18,12,44,13.80
2015,04,18,12,45,13.80
2015,04,18,12,46,13.90
2015,04,18,12,47,14.00
2015,04,18,12,48,14.00
2015,04,18,12,49,14.10
2015,04,18,12,50,14.20
2015,04,18,12,51,14.20
2015,04,18,12,52,14.30
2015,04,18,12,53,14.30
2015,04,18,12,54,14.40
2015,04,18,12,55,14.40
2015,04,18,12,56,14.50
2015,04,18,12,57,14.50
2015,04,18,12,58,14.40
2015,04,18,12,59,14.20
2015,04,18,13,00,14.10
2015,04,18,13,01,14.10
2015,04,18,13,02,14.00
2015,04,18,13,03,14.00
2015,04,18,13,04,13.90
2015,04,18,13,05,13.80
2015,04,18,13,06,13.70
2015,04,18,13,07,13.70
2015,04,18,13,08,13.70
2015,04,18,13,09,13.70
2015,04,18,13,10,13.60
2015,04,18,13,11,13.60
2015,04,18,13,12,13.60
2015,04,18,13,13,13.60
2015,04,18,13,14,13.60
2015,04,18,13,15,13.50
2015,04,18,13,16,13.50
2015,04,18,13,17,13.60
2015,04,18,13,18,13.60
2015,04,18,13,19,13.70
2015,04,18,13,20,13.80
2015,04,18,13,21,13.90
2015,04,18,13,22,14.00
2015,04,18,13,23,14.10
2015,04,18,13,24,14.20
2015,04,18,13,25,14.30
2015,04,18,13,26,14.40
2015,04,18,13,27,14.50
2015,04,18,13,28,14.50
2015,04,18,13,29,14.60
2015,04,18,13,30,14.60
2015,04,18,13,31,14.60
2015,04,18,13,32,14.70
2015,04,18,13,33,14.70
2015,04,18,13,34,14.70
2015,04,18,13,35,14.70
2015,04,18,13,36,14.70
2015,04,18,13,37,14.70
2015,04,18,13,38,14.60
2015,04,18,13,39,14.60
2015,04,18,13,40,14.50
2015,04,18,13,41,14.50
2015,04,18,13,42,14.50
2015,04,18,13,43,14.60
2015,04,18,13,44,14.60
2015,04,18,13,45,14.70
2015,04,18,13,46,14.80
2015,04,18,13,47,14.80
2015,04,18,13,48,14.80
2015,04,18,13,49,14.80
2015,04,18,13,50,14.90
2015,04,18,13,51,14.90
2015,04,18,13,52,14.90
2015,04,18,13,53,14.90
2015,04,18,13,54,14.90
2015,04,18,13,55,14.90
2015,04,18,13,56,14.90
2015,04,18,13,57,14.90
2015,04,18,13,58,15.00
2015,04,18,13,59,15.00
2015,04,18,14,00,15.00
2015,04,18,14,01,15.00
2015,04,18,14,02,15.10
2015,04,18,14,03,15.00
2015,04,18,14,04,15.00
2015,04,18,14,05,15.00
2015,04,18,14,06,14.90
2015,04,18,14,07,14.90
2015,04,18,14,08,15.00
2015,04,18,14,09,15.00
2015,04,18,14,10,15.00
2015,04,18,14,11,15.00
2015,04,18,14,12,14.90
2015,04,18,14,13,14.80
2015,04,18,14,14,14.80
2015,04,18,14,15,14.70
2015,04,18,14,16,14.70
2015,04,18,14,17,14.60
2015,04,18,14,18,14.50
2015,04,18,14,19,14.40
2015,04,18,14,20,14.40
2015,04,18,14,21,14.40
2015,04,18,14,22,14.30
2015,04,18,14,23,14.30
2015,04,18,14,24,14.20
2015,04,18,14,25,14.10
2015,04,18,14,26,14.00
2015,04,18,14,27,13.90
2015,04,18,14,28,13.90
2015,04,18,14,29,13.90
2015,04,18,14,30,13.80
2015,04,18,14,31,13.80
2015,04,18,14,32,13.90
2015,04,18,14,33,13.90
2015,04,18,14,34,13.90
2015,04,18,14,35,14.00
2015,04,18,14,36,14.00
2015,04,18,14,37,14.00
2015,04,18,14,38,14.00
2015,04,18,14,39,13.90
2015,04,18,14,40,13.90
2015,04,18,14,41,13.90
2015,04,18,14,42,13.90
2015,04,18,14,43,13.90
2015,04,18,14,44,14.00
2015,04,18,14,45,14.00
2015,04,18,14,46,14.10
2015,04,18,14,47,14.10
2015,04,18,14,48,14.10
2015,04,18,14,49,14.10
2015,04,18,14,50,14.10
2015,04,18,14,51,14.10
2015,04,18,14,52,14.20
2015,04,18,14,53,14.20
2015,04,18,14,54,14.20
2015,04,18,14,55,14.30
2015,04,18,14,56,14.30
2015,04,18,14,57,14.40
2015,04,18,14,58,14.40
2015,04,18,14,59,14.50
2015,04,18,15,00,14.60
2015,04,18,15,01,14.60
2015,04,18,15,02,14.70
2015,04,18,15,03,14.70
2015,04,18,15,04,14.70
2015,04,18,15,05,14.70
2015,04,18,15,06,14.70
2015,04,18,15,07,14.70
2015,04,18,15,08,14.70
2015,04,18,15,09,14.80
2015,04,18,15,10,14.80
2015,04,18,15,11,14.90
2015,04,18,15,12,14.90
2015,04,18,15,13,15.00
2015,04,18,15,14,15.00
2015,04,18,15,15,15.00
2015,04,18,15,16,15.00
2015,04,18,15,17,15.00
2015,04,18,15,18,14.90
2015,04,18,15,19,14.90
2015,04,18,15,20,14.80
2015,04,18,15,21,14.80
2015,04,18,15,22,14.80
2015,04,18,15,23,14.70
2015,04,18,15,24,14.70
2015,04,18,15,25,14.70
2015,04,18,15,26,14.70
2015,04,18,15,27,14.70
2015,04,18,15,28,14.70
2015,04,18,15,29,14.70
2015,04,18,15,30,14.70
2015,04,18,15,31,14.70
2015,04,18,15,32,14.70
2015,04,18,15,33,14.70
2015,04,18,15,34,14.70
2015,04,18,15,35,14.70
2015,04,18,15,36,14.70
2015,04,18,15,37,14.70
2015,04,18,15,38,14.70
2015,04,18,15,39,14.70
2015,04,18,15,40,14.70
2015,04,18,15,41,14.70
2015,04,18,15,42,14.70
2015,04,18,15,43,14.70
2015,04,18,15,44,14.60
2015,04,18,15,45,14.60
2015,04,18,15,46,14.50
2015,04,18,15,47,14.50
2015,04,18,15,48,14.50
2015,04,18,15,49,14.50
2015,04,18,15,50,14.50
2015,04,18,15,51,14.50
2015,04,18,15,52,14.50
2015,04,18,15,53,14.50
2015,04,18,15,54,14.50
2015,04,18,15,55,14.50
2015,04,18,15,56,14.50
2015,04,18,15,57,14.50
2015,04,18,15,58,14.50
2015,04,18,15,59,14.60
2015,04,18,16,00,14.50
2015,04,18,16,01,14.50
2015,04,18,16,02,14.50
2015,04,18,16,03,14.60
2015,04,18,16,04,14.60
2015,04,18,16,05,14.60
2015,04,18,16,06,14.60
2015,04,18,16,07,14.60
2015,04,18,16,08,14.60
2015,04,18,16,09,14.60
2015,04,18,16,10,14.60
2015,04,18,16,11,14.60
2015,04,18,16,12,14.60
2015,04,18,16,13,14.60
2015,04,18,16,14,14.60
2015,04,18,16,15,14.70
2015,04,18,16,16,14.70
2015,04,18,16,17,14.70
2015,04,18,16,18,14.80
2015,04,18,16,19,14.80
2015,04,18,16,20,14.80
2015,04,18,16,21,14.80
2015,04,18,16,22,14.90
2015,04,18,16,23,14.90
2015,04,18,16,24,15.00
2015,04,18,16,25,15.00
2015,04,18,16,26,15.10
2015,04,18,16,27,15.20
2015,04,18,16,28,15.30
2015,04,18,16,29,15.30
2015,04,18,16,30,15.40
2015,04,18,16,31,15.40
2015,04,18,16,32,15.40
2015,04,18,16,33,15.40
2015,04,18,16,34,15.40
2015,04,18,16,35,15.50
2015,04,18,16,36,15.40
2015,04,18,16,37,15.40
2015,04,18,16,38,15.40
2015,04,18,16,39,15.40
2015,04,18,16,40,15.30
2015,04,18,16,41,15.20
2015,04,18,16,42,15.20
2015,04,18,16,43,15.10
2015,04,18,16,44,15.10
2015,04,18,16,45,15.10
2015,04,18,16,46,15.10
2015,04,18,16,47,15.20
2015,04,18,16,48,15.20
2015,04,18,16,49,15.30
2015,04,18,16,50,15.30
2015,04,18,16,51,15.30
2015,04,18,16,52,15.30
2015,04,18,16,53,15.20
2015,04,18,16,54,15.20
2015,04,18,16,55,15.20
2015,04,18,16,56,15.20
2015,04,18,16,57,15.20
2015,04,18,16,58,15.20
2015,04,18,16,59,15.20
2015,04,18,17,00,15.20
2015,04,18,17,01,15.20
2015,04,18,17,02,15.20
2015,04,18,17,03,15.20
2015,04,18,17,04,15.20
2015,04,18,17,05,15.30
2015,04,18,17,06,15.30
2015,04,18,17,07,15.30
2015,04,18,17,08,15.30
2015,04,18,17,09,15.30
2015,04,18,17,10,15.40
2015,04,18,17,11,15.40
2015,04,18,17,12,15.40
2015,04,18,17,13,15.40
2015,04,18,17,14,15.50
2015,04,18,17,15,15.50
2015,04,18,17,16,15.60
2015,04,18,17,17,15.60
2015,04,18,17,18,15.70
2015,04,18,17,19,15.80
2015,04,18,17,20,15.80
2015,04,18,17,21,15.90
2015,04,18,17,22,15.90
2015,04,18,17,23,16.00
2015,04,18,17,24,16.00
2015,04,18,17,25,16.10
2015,04,18,17,26,16.10
2015,04,18,17,27,16.10
2015,04,18,17,28,16.10
2015,04,18,17,29,16.10
2015,04,18,17,30,16.10
2015,04,18,17,31,16.10
2015,04,18,17,32,16.00
2015,04,18,17,33,16.00
2015,04,18,17,34,15.90
2015,04,18,17,35,15.90
2015,04,18,17,36,15.90
2015,04,18,17,37,15.90
2015,04,18,17,38,15.90
2015,04,18,17,39,15.90
2015,04,18,17,40,15.90
2015,04,18,17,41,15.90
2015,04,18,17,42,15.90